OneWeb SL0546

operational
NORAD ID: 56048 Int'l Des: 2023-043 Owner: ONEWEBN Country: UK Constellation: oneweb
LEOCIRCULARPOLARONEWEB_TYPE

OneWeb SL0546について

説明を読み込み中...

リアルタイム位置

3D地球を読み込み中...

次回通過

高度履歴

Altitude vs Time

uPlot chart will show altitude changes over time

軌道要素

1 56048U 23043C 25258.06660992 .00000114 00000-0 26484-3 0 9998
2 56048 87.8994 283.5903 0002537 99.9828 260.1589 13.16594659122760
Epoch: Sep 15, 2025 • Age: 14 hours

現在のステータス

高度 1199.4 km
速度 7.26 km/s
衛星直下点 8.77°N, 120.17°W
打ち上げ日 Mar 26, 2023
運用期間 2.4 years
タイプ internet

技術仕様

分類 Payload
質量 148.00 kg
乾燥質量 140.00 kg
総質量 148.00 kg
長さ 1.30 m
直径 1.00 m
スパン 5.00 m
形状 Trapezoid+2 pan
製造者 ONEWUS
バスタイプ ARROW
フェーズステータス In Orbit
所有者/国 ONEWEBN/UK

大規模コンステレーション

Loading constellations...